Flag for U.S.A. Weather past 2 weeks in Midland, Texas, U.S.A.

Now
72 °F

Clear.


Feels Like: 75 °F
Forecast: 57 / 80 °F
Wind: No wind

Location: Midland - Midland Airpark

Current Time: Apr 25, 2015 at 10:59:23 PM

Latest Report: Apr 25, 2015 at 10:15 PM


Visibility: 10 mi

Pressure: 29.77 "Hg

Humidity: 23%

Dew point: 32 °F

Location of MidlandLocation

Historic Weather in Midland — Graph

°F

Midland temperature yesterday

Maximum temperature yesterday: 82 °F (at 5:15 PM)
Minimum temperature yesterday: 60 °F (at 8:55 AM)
Average temperature yesterday: 70 °F

Past Weeks' High & Low Weather Summary

 TemperatureHumidityPressure
High87 °F (Apr 22, 3:55 PM)100% (Apr 13, 5:15 AM)30.26 "Hg (Apr 13, 5:15 AM)
Low46 °F (Apr 20, 6:35 AM)9% (Apr 18, 6:15 PM)29.75 "Hg (Apr 25, 5:55 PM)
Average67 °F52%29.93 "Hg
* Reported Apr 10 9:15 PM — Apr 25 9:55 PM, Midland, Weather by CustomWeather, © 2015

Note: Actual official high and low records may vary slightly from our data, if they occured in-between our weather recording intervals... More about our weather records

Advertising

Midland weather history for previous 24 hours

 ConditionsComfort  
Time TempWeatherWind HumidityBarometerVisibility
9:55 PM
Sat, Apr 25
71 °FClear.No wind23%29.76 "Hg10 mi
9:35 PM73 °FClear.3 mph20%29.76 "Hg10 mi
9:15 PM75 °FSunny.3 mph16%29.76 "Hg10 mi
8:55 PM75 °FSunny.5 mph15%29.76 "Hg10 mi
8:35 PM77 °FSunny.8 mph13%29.75 "Hg10 mi
8:15 PM79 °FSunny.8 mph13%29.75 "Hg10 mi
7:55 PM81 °FSunny.7 mph12%29.75 "Hg10 mi
7:35 PM82 °FSunny.13 mph11%29.75 "Hg10 mi
7:15 PM82 °FSunny.12 mph11%29.75 "Hg10 mi
6:55 PM83 °FSunny.12 mph12%29.75 "Hg10 mi
6:35 PM83 °FSunny.17 mph11%29.75 "Hg10 mi
6:15 PM83 °FSunny.16 mph12%29.75 "Hg10 mi
5:55 PM83 °FSunny.13 mph13%29.75 "Hg10 mi
5:35 PM83 °FSunny.17 mph12%29.76 "Hg10 mi
5:15 PM83 °FSunny.16 mph13%29.76 "Hg10 mi
4:15 PM83 °FSunny.18 mph13%29.78 "Hg10 mi
3:55 PM83 °FSunny.18 mph13%29.80 "Hg10 mi
3:35 PM82 °FSunny.15 mph14%29.81 "Hg10 mi
3:15 PM81 °FSunny.13 mph16%29.82 "Hg10 mi
2:55 PM81 °FSunny.15 mph16%29.83 "Hg10 mi
2:35 PM80 °FSunny.15 mph17%29.84 "Hg10 mi
2:15 PM81 °FSunny.13 mph16%29.84 "Hg10 mi
1:55 PM80 °FSunny.14 mph17%29.85 "Hg10 mi
1:35 PM79 °FSunny.13 mph18%29.86 "Hg10 mi
1:15 PM79 °FSunny.18 mph18%29.87 "Hg10 mi
12:55 PM79 °FSunny.17 mph18%29.88 "Hg10 mi
12:35 PM78 °FSunny.18 mph18%29.89 "Hg10 mi
12:15 PM77 °FSunny.20 mph19%29.89 "Hg10 mi
11:55 AM76 °FSunny.18 mph19%29.90 "Hg10 mi
11:15 AM75 °FSunny.18 mph21%29.91 "Hg7 mi
10:55 AM75 °FSunny.22 mph21%29.91 "Hg10 mi
10:15 AM72 °FSunny.6 mph25%29.91 "Hg7 mi
9:55 AM71 °FSunny.12 mph26%29.92 "Hg7 mi
9:35 AM69 °FSunny.10 mph28%29.92 "Hg10 mi
9:15 AM66 °FSunny.10 mph31%29.91 "Hg10 mi
8:55 AM64 °FSunny.13 mph34%29.91 "Hg7 mi
8:35 AM62 °FSunny.10 mph35%29.91 "Hg7 mi
8:15 AM60 °FSunny.12 mph37%29.90 "Hg7 mi
7:55 AM59 °FClear.13 mph38%29.89 "Hg7 mi
7:15 AM58 °FClear.9 mph39%29.89 "Hg10 mi
6:55 AM59 °FClear.10 mph35%29.88 "Hg10 mi
6:15 AM61 °FClear.14 mph32%29.87 "Hg10 mi
5:55 AM62 °FClear.14 mph32%29.86 "Hg10 mi
5:35 AM62 °FClear.13 mph32%29.86 "Hg10 mi
5:15 AM62 °FClear.15 mph31%29.85 "Hg10 mi
4:55 AM63 °FClear.14 mph30%29.85 "Hg10 mi
4:35 AM62 °FClear.12 mph31%29.85 "Hg10 mi
4:15 AM60 °FClear.7 mph35%29.85 "Hg10 mi
3:55 AM60 °FClear.7 mph34%29.85 "Hg10 mi
3:15 AM62 °FClear.13 mph31%29.84 "Hg10 mi
2:55 AM61 °FClear.14 mph32%29.84 "Hg10 mi
2:35 AM62 °FClear.13 mph31%29.84 "Hg10 mi
2:15 AM63 °FClear.13 mph28%29.84 "Hg10 mi
1:55 AM64 °FClear.14 mph26%29.85 "Hg10 mi
1:35 AM65 °FClear.14 mph25%29.85 "Hg10 mi
1:15 AM66 °FClear.13 mph23%29.85 "Hg10 mi
12:55 AM66 °FClear.13 mph23%29.85 "Hg10 mi
12:35 AM68 °FClear.15 mph21%29.84 "Hg10 mi
12:15 AM65 °FClear.13 mph24%29.84 "Hg10 mi
11:55 PM
Fri, Apr 24
67 °FClear.13 mph22%29.84 "Hg10 mi
11:35 PM68 °FClear.15 mph20%29.83 "Hg10 mi
11:15 PM68 °FClear.12 mph22%29.83 "Hg10 mi
10:15 PM69 °FClear.10 mph22%29.82 "Hg10 mi
Weather by CustomWeather, © 2015

See weather overviewHow to use our weather pages